Volver al catálogo

KOSMOS-2578

ActivoMilitarSSO
NORAD 61180·PAYLOAD·🇷🇺 Russia
Este nombre de satélite aún no ha sido confirmado por fuentes oficiales.

Lanzado Sep 17, 2024 desde Plesetsk Cosmodrome

Loading…

Próximos Pases (próximas 24 horas)

TLE

ActualizadoSource: Space-Track

Época: Sep 14, 2026, 20:20 UTC

1 61180U 24166B   26257.84788450  .00019885  00000-0  13238-3 0  9992
2 61180  96.6626 145.6152 0000758  24.6910 335.4393 15.75434125114855

Sigue KOSMOS-2578 en tiempo real con AllMySat

Download on the App Store